{"data":{"norad_id":59586,"intl_designator":"2024-076Y","name":"STARLINK-31704","alt_names":[],"object_type":"PAYLOAD","status":"ACTIVE","operator":null,"country":"US","launch_date":"2024-04-23","launch_site_code":"AFETR","launch_vehicle":null,"mission":null,"orbit_class":"UNKNOWN","rcs_meters":null,"size_class":null,"mass_kg":null,"dimensions":null,"purposes":["comms"],"wikipedia_slug":null,"has_3d_model":false,"image_url":null,"decayed_at":null,"tle_current":{"epoch":"2026-09-21T16:47:06.857952Z","epoch_age_seconds":64616,"freshness":"FRESH","line1":"1 59586U 24076Y   26264.69938493  .00081134  00000+0  57746-3 0  9991","line2":"2 59586  42.9824 257.6882 0025916 118.0374 242.3120 15.72418330137435","mean_motion":15.7241833,"eccentricity":0.0025916,"inclination_deg":42.9824,"raan_deg":257.6882,"arg_perigee_deg":118.0374,"mean_anomaly_deg":242.312,"bstar":0.00057746,"rev_number":13743,"period_min":91.578683135804,"perigee_km":334.54588179338,"apogee_km":369.42946399793,"semimajor_km":6730.1246728957,"source":"CELESTRAK","updated_at":"2026-09-22T09:00:49.008033Z"}}}